Location: Saint-Gilles les Bains
(21.0539°S, 55.2287°E)
Time: 16:59:33
(UTC+04:00)

Hubble Space Telescope - Pass Details

Date: 08 December 2023
Orbit: 516 x 519 km, 28.5° (Epoch: 22 February)

Event Time Altitude Azimuth Distance (km) Brightness Sun altitude
Exits shadow 03:47:05 25° 225° (SW) 1,091 2.2 -21.5°
Maximum altitude 03:49:04 45° 166° (SSE) 726 1.7 -21.1°
Drops below altitude 10° 03:52:59 10° 92° (E) 1,759 4.2 -20.4°
Sets 03:55:18 0° 86° (E) 2,644 5.1 -19.9°
